{"data":{"norad_id":58230,"intl_designator":"2023-171A","name":"STARLINK-30861","alt_names":[],"object_type":"PAYLOAD","status":"ACTIVE","operator":null,"country":"US","launch_date":"2023-11-08","launch_site_code":"AFETR","launch_vehicle":null,"mission":null,"orbit_class":"UNKNOWN","rcs_meters":null,"size_class":null,"mass_kg":null,"dimensions":null,"purposes":["comms"],"wikipedia_slug":null,"has_3d_model":false,"image_url":null,"decayed_at":null,"tle_current":{"epoch":"2026-09-20T01:22:22.172448Z","epoch_age_seconds":181949,"freshness":"STALE","line1":"1 58230U 23171A   26263.05720107  .00058104  00000+0  14074-2 0  9998","line2":"2 58230  42.9885 261.9499 0014157  91.2668 268.9810 15.40173761159527","mean_motion":15.40173761,"eccentricity":0.0014157,"inclination_deg":42.9885,"raan_deg":261.9499,"arg_perigee_deg":91.2668,"mean_anomaly_deg":268.981,"bstar":0.0014074,"rev_number":15952,"period_min":93.495944189118,"perigee_km":435.93567929938,"apogee_km":455.25639702363,"semimajor_km":6823.7330381615,"source":"CELESTRAK","updated_at":"2026-09-21T09:00:33.835951Z"}}}